Main page
METAR-TAF:

METAR-TAF

Airports :

Kermanshah Airport

Kermanshah, Iran

latitude: 34-16N, longitude: 047-07E, elevation: 1320 m

Current weather observation

The report was made 39 minutes ago, at 16:30 UTC
Calm wind
Temperature 20°C
Humidity 28%
Pressure 1021 hPa
Visibility 10 km or more
Scattered clouds at a height of 4500 ft
Broken clouds at a height of 8000 ft

METAR: OICC 181630Z 00000KT 9999 SCT045 BKN080 20/01 Q1021 A3015

Time: 20:39 (17:09 UTC)


TAF: missing

Weather observations and forecasts of more than 4000 airports (METAR and TAF reports).

The available stations are represented by yellow and red dots on the map.

Hover mouse over dot to see the name of the station.

Then click to see weather observations and forecasts.

To change the map : click on the green buttons with a black cross to zoom in, on the green button with a dash to zoom out, or on the green arrows for adjacent maps.


METAR-TAF: